RH
35 31 29 28 27 31 35 38 39 38 38 35 33 34 31 28 26 24 23 29 29 27 23 24 26 24 24 25 19 17 27 32 23 18 15 11 11 10 10 10 13 26 33 29 37
34 31 28 27 27 31 35 38 38 37 36 35 32 32 31 28 31 29 30 30 30 25 22 19 19 23 22 22 20 21 30 24 18 15 14 12 12 12 11 11 20 31 44 35 47
34 31 28 26 26 30 34 38 39 37 36 35 34 32 32 29 36 29 30 28 26 26 21 23 25 25 25 21 20 20 25 19 17 14 13 13 13 13 14 15 15 41 52 48 62
32 30 28 26 25 28 33 37 40 38 36 35 34 33 33 31 39 31 31 31 30 25 22 24 24 24 25 26 21 23 19 18 16 15 14 13 12 13 14 14 15 20 34 49 58
31 30 28 27 25 26 30 35 38 39 38 36 37 37 36 33 35 33 32 30 28 27 26 26 26 25 28 26 24 24 21 21 19 17 16 14 14 14 13 13 15 27 46 44 39
31 29 28 26 24 26 28 32 36 39 39 38 40 42 40 42 36 36 33 32 28 26 26 25 26 24 24 26 28 24 24 23 20 19 19 17 17 16 14 13 16 25 39 38 39
32 29 28 25 24 24 26 30 33 37 40 39 41 46 40 35 37 28 32 31 27 26 25 26 25 24 25 29 24 23 26 25 21 19 19 17 20 20 14 15 14 19 23 26 30
34 28 28 25 25 23 24 27 31 34 38 39 43 48 41 37 33 30 28 27 26 26 26 26 26 26 26 25 26 29 28 31 22 19 18 18 27 19 14 15 15 14 14 14 19
34 31 28 26 25 23 22 23 27 34 39 45 44 48 44 39 34 32 33 33 29 27 28 26 26 27 28 34 39 33 37 31 19 18 18 20 24 18 16 16 16 15 14 16 22
34 30 31 26 26 23 21 21 26 42 47 46 48 49 35 37 38 38 38 34 29 29 29 28 28 37 41 42 46 33 27 22 20 15 16 20 22 20 15 15 15 15 14 20 27
28 30 29 30 31 23 21 24 51 44 52 46 39 40 42 38 41 42 39 33 34 34 39 32 42 48 40 38 35 26 21 25 23 19 19 21 23 21 17 17 17 16 16 26 30
38 34 32 33 33 27 24 50 67 62 67 47 37 44 40 46 49 41 25 29 37 47 38 42 49 38 33 32 24 21 24 28 24 20 19 23 25 22 21 18 15 14 21 32 40
48 50 46 38 39 30 28 32 78 70 67 52 38 44 36 44 34 25 24 26 33 44 45 50 37 30 26 21 23 24 25 26 25 23 21 23 26 23 19 17 15 16 20 32 43
53 54 55 52 47 35 44 70 70 64 82 57 39 27 28 25 30 24 22 24 22 36 37 42 32 24 24 25 25 30 24 21 22 25 32 24 41 28 21 22 29 30 35 53 63
59 62 60 60 46 68 75 71 66 66 65 28 27 25 25 28 25 22 23 23 28 25 27 32 25 29 29 26 23 29 19 20 21 26 30 30 38 33 25 23 33 47 51 59 64
72 65 73 65 57 79 76 69 65 85 87 47 31 31 30 27 24 22 22 23 23 24 24 26 21 25 27 24 22 19 22 27 32 36 47 35 35 40 30 21 35 43 55 58 61
93 90 72 63 54 84 78 71 85 98 44 46 39 35 34 35 29 26 28 29 32 35 38 31 30 25 21 25 21 23 35 52 54 56 54 32 37 38 27 25 32 50 55 55 54
90 97 94 67 71 73 83 84 98 69 63 42 41 38 40 33 33 30 29 34 31 31 41 43 48 29 24 27 29 31 37 56 53 56 51 33 43 32 30 37 32 50 49 47 46
100 100 100 89 83 64 86 95 81 66 60 53 46 54 53 43 34 32 33 31 29 32 40 49 48 30 23 20 23 27 35 30 42 44 57 48 36 27 31 45 49 50 47 47 48
100 100 100 92 82 98 94 79 72 55 55 50 59 55 64 52 45 42 41 34 29 34 34 37 52 35 31 23 23 27 26 36 46 53 63 52 43 40 35 42 51 52 50 48 44
100 100 99 96 90 100 95 83 62 52 50 64 64 63 60 53 49 48 42 41 38 45 44 45 43 43 32 34 38 36 33 32 38 57 60 67 57 40 40 40 50 49 39 38 35
100 98 96 100 98 93 90 75 58 55 54 60 61 63 68 62 56 60 55 44 44 47 53 51 66 69 46 39 41 41 46 38 53 55 59 62 50 26 38 39 42 43 37 29 24
97 94 100 100 96 95 84 76 68 66 57 60 70 63 58 63 70 66 59 55 50 57 66 58 73 92 74 56 48 54 51 49 52 55 58 66 60 38 34 39 36 30 28 26 24
100 100 100 100 87 89 85 86 87 66 65 60 62 64 68 68 67 70 74 74 63 62 50 48 81 77 82 67 58 65 58 55 57 86 68 60 53 37 38 41 38 33 30 28 27
100 98 88 100 98 93 89 86 87 88 66 62 74 65 71 83 73 76 73 84 77 85 78 76 87 78 79 70 66 68 67 66 77 72 76 61 59 49 40 42 42 30 29 28 30
98 97 100 97 79 96 95 89 85 80 82 79 73 68 66 74 71 77 67 74 78 95 94 90 91 89 92 78 76 85 75 74 72 67 65 62 62 42 38 36 39 35 32 34 36
99 96 88 85 90 93 88 82 82 76 76 70 70 70 78 74 58 56 61 62 75 76 98 98 98 99 94 82 81 96 87 76 67 63 61 74 55 42 47 44 41 36 36 37 47
Wind_Speed
7 7 7 8 8 9 11 13 14 16 19 22 25 30 26 28 11 4 7 4 2 8 13 2 5 6 10 11 9 3 2 2 5 2 7 6 3 4 3 3 7 12 11 9 22
8 9 9 9 8 9 10 11 12 15 18 22 26 29 28 27 10 3 6 6 5 7 6 6 7 8 6 10 5 3 3 5 6 2 4 3 4 8 3 3 5 4 2 15 27
10 10 10 11 11 11 10 11 13 14 17 22 27 30 31 20 3 3 3 2 5 9 3 4 4 9 5 3 4 4 6 9 21 13 9 3 4 5 3 2 1 8 16 25 27
12 12 11 12 12 13 12 12 13 15 17 22 27 30 31 16 1 4 6 7 7 5 5 4 6 6 3 4 6 4 12 15 20 14 4 3 3 6 3 4 1 2 18 27 26
14 13 13 13 13 14 14 14 15 16 18 22 26 28 30 14 3 6 9 11 4 2 3 8 11 4 2 6 10 5 4 17 13 12 8 6 5 6 10 11 7 10 23 26 26
16 15 15 14 14 15 16 15 16 16 18 21 25 25 26 6 3 9 12 11 2 3 3 5 1 2 6 5 1 8 12 14 14 19 9 5 7 4 15 15 11 15 23 25 27
18 17 17 17 16 15 17 18 17 16 18 20 23 22 22 6 5 7 5 3 3 3 6 4 5 3 6 6 6 11 7 10 13 9 5 4 8 7 24 16 17 21 20 19 21
20 19 18 19 18 18 18 19 19 17 18 20 21 18 12 6 4 4 3 4 1 1 5 5 7 10 4 6 7 4 3 3 7 2 6 10 9 6 8 9 19 16 14 10 16
21 19 19 19 19 19 19 19 19 19 19 15 16 8 10 4 4 6 6 9 5 7 8 8 8 6 5 1 4 2 3 4 8 4 2 5 9 6 5 8 15 16 15 12 13
21 19 19 19 19 19 19 19 17 13 13 8 11 5 9 7 8 15 15 11 11 9 10 4 4 1 2 3 4 3 2 4 5 5 6 3 9 8 12 9 15 18 19 8 17
22 19 18 18 17 17 17 15 7 3 3 7 16 30 31 31 26 17 15 13 13 7 3 3 1 7 9 7 7 6 3 3 5 6 2 3 6 10 17 19 16 21 20 20 24
22 21 18 17 16 13 11 4 1 8 15 26 28 32 27 27 12 17 7 8 10 6 2 4 6 11 4 9 8 2 4 6 5 3 2 6 10 10 8 11 20 24 9 28 27
23 21 18 17 15 12 10 7 4 7 6 19 14 6 3 8 8 7 9 6 4 5 7 6 6 3 6 3 2 3 3 3 4 6 2 6 7 7 6 8 18 21 16 30 34
24 21 19 16 14 11 3 2 3 6 3 7 3 4 7 6 3 8 6 3 2 10 7 7 10 5 5 5 5 4 5 5 2 4 2 5 5 7 10 7 2 2 23 29 29
25 23 21 17 7 10 8 8 3 3 3 4 3 6 5 5 2 6 10 6 3 3 5 8 4 6 5 8 4 7 3 2 2 1 2 3 1 8 6 5 4 5 23 30 29
27 25 23 22 21 14 11 11 4 5 6 4 6 6 4 5 2 5 4 5 4 2 2 7 2 5 8 6 7 1 2 4 4 3 2 4 5 5 4 2 3 1 23 30 28
30 28 27 26 27 15 12 11 3 5 4 5 5 6 5 5 5 6 4 3 4 2 3 3 6 5 7 5 1 3 5 4 4 1 5 3 3 8 6 7 13 12 21 29 26
33 30 30 30 24 20 17 2 10 8 9 3 5 5 6 7 6 8 5 4 6 2 1 4 6 4 4 8 8 6 8 5 5 3 5 8 6 6 4 4 16 23 30 26 20
34 33 36 35 27 26 19 12 8 10 7 4 3 4 4 4 5 6 9 6 8 11 7 3 5 2 4 3 7 3 4 6 2 2 0 5 7 5 4 5 11 18 23 20 17
40 42 46 39 34 27 13 20 10 10 6 5 9 6 8 6 3 5 6 6 8 2 7 2 4 5 9 3 1 6 3 0 2 4 5 4 5 6 4 6 7 8 20 24 21
45 17 25 50 43 30 19 13 14 15 11 9 10 7 6 5 6 4 4 1 2 3 7 2 3 5 4 2 6 1 1 1 3 5 5 3 6 5 11 8 10 9 21 21 19
31 6 16 43 24 25 22 21 20 20 16 8 6 9 8 9 7 7 8 7 6 3 4 0 4 4 8 6 4 4 5 6 4 6 4 4 18 4 8 8 15 13 18 16 11
17 14 27 43 15 17 13 18 27 11 18 9 9 7 9 10 5 8 8 3 12 7 8 7 2 3 4 2 2 7 5 6 5 2 12 7 8 3 5 6 16 21 16 10 7
14 4 10 32 34 17 18 22 20 33 10 15 7 10 6 14 10 6 7 4 4 6 14 13 6 9 16 9 1 5 5 4 2 2 7 21 23 3 5 8 8 16 13 9 10
12 5 12 8 11 21 13 5 24 17 30 27 8 24 17 10 18 16 6 3 4 5 2 6 12 15 18 21 20 22 24 23 20 18 10 16 16 8 13 11 17 24 16 15 12
12 7 9 3 32 17 13 20 23 20 12 23 24 20 23 29 22 16 20 11 9 3 7 3 8 2 18 15 16 21 22 18 22 22 20 26 32 17 23 24 18 21 20 16 17
21 17 13 12 11 15 20 18 17 17 15 27 29 21 20 26 29 30 18 20 10 13 11 9 6 6 15 9 7 15 20 23 22 22 19 19 30 19 9 10 17 22 19 18 20
Wind_Direction
289 300 313 325 338 342 354 354 0 360 358 357 355 355 350 348 339 265 198 231 209 328 334 279 319 335 284 269 268 238 71 269 260 344 306 322 319 257 110 204 198 199 187 200 183
278 292 302 311 319 327 341 345 351 352 352 352 350 353 352 345 351 132 198 220 282 328 337 296 299 322 312 267 253 119 131 244 208 242 262 323 21 346 332 303 43 186 250 181 178
275 286 296 303 307 317 330 334 340 345 348 347 344 348 348 346 18 33 127 211 287 315 308 331 313 318 284 262 231 229 227 245 270 272 256 230 328 359 16 331 161 172 165 170 176
266 275 284 291 300 304 314 321 330 336 342 342 341 343 350 358 113 9 339 316 311 308 285 276 322 318 258 294 306 284 260 274 262 265 249 222 234 311 280 269 293 216 187 179 188
261 269 277 288 294 297 304 311 319 327 336 337 337 340 343 351 359 339 323 326 260 317 305 316 312 314 319 299 328 218 307 325 316 307 338 284 269 241 275 286 196 185 183 192 203
258 267 272 277 283 291 296 300 308 320 327 329 330 333 333 306 274 306 311 319 286 293 314 1 309 313 280 295 234 302 300 295 306 296 292 267 275 297 257 261 231 210 196 206 211
256 261 269 277 281 285 291 295 299 314 317 319 319 324 318 287 278 327 318 332 248 239 290 339 337 299 317 305 285 292 317 337 303 273 246 292 305 237 271 277 251 197 199 207 220
254 259 267 274 282 288 291 296 299 312 307 308 308 310 281 293 318 307 28 356 311 267 308 300 323 323 248 293 318 326 44 330 278 233 248 150 263 281 264 279 208 207 218 246 214
256 262 267 273 281 288 295 299 303 307 302 300 295 303 272 236 262 282 282 305 262 248 257 264 293 279 290 213 351 358 255 249 316 18 122 137 241 247 156 180 206 217 231 225 204
254 260 267 274 282 289 299 305 307 303 289 291 275 290 245 227 283 299 283 255 246 263 281 259 243 322 0 83 206 249 250 268 270 305 7 284 257 267 266 232 236 243 253 204 165
249 252 260 268 277 288 303 329 314 289 264 255 271 272 270 281 284 277 277 249 240 239 200 281 50 230 232 215 234 264 243 272 255 298 308 283 280 289 288 294 283 276 267 178 155
248 250 255 264 274 285 300 329 33 315 301 293 285 276 280 274 280 289 196 191 191 202 216 349 249 245 260 266 235 253 298 293 292 7 351 314 293 256 244 259 272 279 221 166 156
244 248 251 259 270 275 277 273 273 309 282 299 277 269 308 190 226 269 201 180 185 188 198 181 236 153 189 273 339 290 242 284 266 311 358 357 304 329 286 291 293 280 225 183 166
240 240 242 248 264 255 261 243 226 308 359 274 232 202 170 189 248 202 201 179 247 204 181 221 251 228 210 232 177 255 213 208 211 21 270 109 279 284 273 290 100 221 161 158 153
236 235 233 230 227 186 165 145 242 299 358 258 173 165 182 172 284 215 214 195 221 257 117 239 203 194 208 227 183 227 209 245 250 172 354 320 105 270 285 308 174 123 136 147 149
232 230 226 222 216 194 177 171 230 54 236 280 159 172 142 202 234 156 183 227 257 282 240 248 296 165 209 244 207 259 3 351 44 103 341 261 166 267 266 198 183 134 134 142 142
227 226 226 226 226 191 174 151 48 193 267 214 192 170 200 189 198 173 190 210 195 131 246 306 257 244 190 218 222 108 60 329 334 20 224 295 303 244 271 260 184 162 154 149 146
225 223 224 227 223 194 177 115 217 213 216 311 113 139 180 175 229 185 192 224 243 222 313 215 310 211 170 190 189 188 162 172 229 233 255 331 262 266 321 307 157 153 153 157 162
223 222 222 222 204 200 182 219 203 188 207 202 71 129 222 236 193 171 206 214 210 182 191 231 242 305 111 135 137 218 171 189 182 239 220 226 284 319 44 73 121 148 165 169 167
216 216 217 216 201 187 204 226 198 197 184 163 208 172 186 206 185 180 202 213 226 158 167 232 281 267 266 118 28 164 173 125 19 286 253 262 248 233 223 182 164 169 171 169 169
216 210 216 215 196 194 220 214 208 222 195 170 204 206 194 201 206 213 226 335 23 132 94 141 136 281 4 195 188 327 243 264 211 156 226 283 254 223 197 190 185 189 179 177 173
200 205 202 193 191 206 222 204 199 201 211 243 192 191 185 194 219 208 213 210 151 149 80 175 131 211 222 277 239 212 222 187 190 248 231 209 259 220 197 201 182 183 170 172 188
193 195 179 190 199 214 219 215 220 186 210 200 210 188 201 213 232 203 203 193 168 155 171 183 176 313 267 277 320 251 207 214 249 146 234 230 252 150 149 187 176 165 180 191 210
168 156 193 197 212 216 221 221 214 214 220 212 194 180 185 212 214 215 198 176 221 203 181 157 180 226 255 249 235 272 273 283 225 230 271 238 264 200 194 183 179 192 197 224 263
188 210 179 195 208 209 214 213 219 212 211 197 223 205 191 219 220 222 198 125 28 150 119 142 246 240 248 250 251 259 252 257 267 254 248 271 253 224 228 236 214 217 226 241 253
176 165 179 234 209 194 202 220 223 212 193 216 221 204 205 222 207 211 221 207 203 158 164 151 242 247 261 245 244 258 252 244 242 251 260 266 268 248 255 242 218 220 218 222 190
204 191 179 188 195 204 210 220 227 213 220 223 219 217 210 222 221 223 204 219 197 189 176 166 162 163 257 233 242 261 249 230 232 233 232 240 247 280 236 226 232 243 237 204 179